Torna al catalogo

STARLINK-3458

AttivoComunicazioniVLEO
NORAD 51758·PAYLOAD·🇺🇸 United States

Lanciato Feb 21, 2022 da Cape Canaveral Space Force Station

Loading…

Prossimi Passaggi (prossime 24 ore)

TLE

AggiornatoSource: CelesTrak SupGP

Epoca: Sep 15, 2026, 00:54 UTC

1 51758C 22016AW  26258.03798611 -.00010447  00000+0 -29892-3 0  2583
2 51758  53.1573 165.0170 0001281  84.8364 342.0264 15.35401509    12

Traccia STARLINK-3458 in tempo reale con AllMySat

Download on the App Store